Flag for China Weather past 2 weeks in Kunming, Yunnan, China

Now
63 °F

Passing clouds.


Feels Like: 63 °F
Forecast: 56 / 72 °F
Wind: 6 mph from Southwest

Location: Kunming Airport

Current Time: Jul 30, 2015 at 2:04:15 AM

Latest Report: Jul 30, 2015 at 1:00 AM


Visibility: N/A

Pressure: 30.12 "Hg (24.06 "Hg at 1909m altitude)

Humidity: 94%

Dew point: 61 °F

Location of KunmingLocation

Historic Weather in Kunming — Graph

°F

Kunming temperature yesterday

Maximum temperature yesterday: 72 °F (at 1:00 PM)
Minimum temperature yesterday: 59 °F (at 1:00 AM)
Average temperature yesterday: 64 °F

Past Weeks' High & Low Weather Summary

 TemperatureHumidityPressure
High77 °F (Jul 21, 2:00 PM)100% (Jul 18, 9:00 AM)30.18 "Hg (Jul 18, 9:00 AM)
Low54 °F (Jul 26, 6:00 AM)36% (Jul 26, 3:00 PM)29.92 "Hg (Jul 15, 3:00 AM)
Average63 °F81%30.07 "Hg
* Reported Jul 15 1:00 AM — Jul 30 1:00 AM, Kunming, Weather by CustomWeather, © 2015

Note: Actual official high and low records may vary slightly from our data, if they occured in-between our weather recording intervals... More about our weather records

Advertising

Kunming weather history for previous 24 hours

 ConditionsComfort  
Time TempWeatherWind HumidityBarometerVisibility
1:00 AM
Thu, Jul 30
63 °FPassing clouds.6 mph94%30.12 "HgN/A
12:00 AM63 °FPartly cloudy.3 mph94%30.12 "HgN/A
11:00 PM
Wed, Jul 29
63 °FPartly cloudy.1 mph94%30.12 "HgN/A
10:00 PM63 °FThunderstorms. Mostly cloudy.1 mph88%30.09 "HgN/A
9:00 PM63 °FSprinkles. Mostly cloudy.3 mph88%30.07 "HgN/A
8:00 PM64 °FThunderstorms. Partly cloudy.1 mph88%30.04 "HgN/A
7:00 PM64 °FThunderstorms. Broken clouds.8 mph88%30.04 "HgN/A
6:00 PM68 °FBroken clouds.6 mph78%30.01 "HgN/A
5:00 PM68 °FBroken clouds.10 mph78%30.01 "HgN/A
4:00 PM70 °FBroken clouds.8 mph69%30.04 "HgN/A
3:00 PM70 °FBroken clouds.8 mph69%30.04 "HgN/A
2:00 PM68 °FBroken clouds.13 mph73%30.07 "HgN/A
1:00 PM72 °FBroken clouds.6 mph65%30.07 "HgN/A
12:00 PM70 °FScattered clouds.6 mph69%30.09 "HgN/A
11:00 AM66 °FBroken clouds.3 mph73%30.09 "HgN/A
10:00 AM64 °FScattered clouds.1 mph78%30.09 "HgN/A
9:00 AM61 °FMore clouds than sun.1 mph94%30.09 "HgN/A
8:00 AM59 °FMore clouds than sun.1 mph94%30.09 "HgN/A
7:00 AM59 °FMore clouds than sun.3 mph100%30.07 "Hg5 mi
6:00 AM59 °FSprinkles. Mostly cloudy.1 mph94%30.07 "HgN/A
5:00 AM59 °FSprinkles. Mostly cloudy.No wind94%30.07 "Hg4 mi
4:00 AM59 °FSprinkles. Mostly cloudy.3 mph94%30.07 "Hg4 mi
3:00 AM59 °FSprinkles. Fog.3 mph100%30.09 "Hg3 mi
2:00 AM59 °FSprinkles. Mostly cloudy.3 mph100%30.09 "Hg4 mi
Weather by CustomWeather, © 2015

See weather overviewHow to use our weather pages